STARLINK-4709

operational
NORAD ID: 53778 Int'l Des: 2022-111 Owner: SPXS Country: US Constellation: starlink
LEOCIRCULAR

Über STARLINK-4709

Beschreibung wird geladen...

Live-Position

3D-Globus wird geladen...

Nächste Überflüge

Höhenverlauf

Altitude vs Time

uPlot chart will show altitude changes over time

Zweizeiliger Elementsatz

1 53778U 22111F 25251.62069729 -.00000584 00000-0 -18606-4 0 9997
2 53778 53.2181 16.1855 0001139 87.4971 272.6152 15.08846397166142
Epoch: 8. Sept. 2025 • Age: 19 hours

Aktueller Status

Höhe 542.5 km
Geschwindigkeit 7.60 km/s
Subsatellitenpunkt 39.05°N, 92.06°W
Startdatum 11. Sept. 2022
Alter 2.9 years
Typ internet

Technische Details

Klassifizierung Payload
Masse 305.00 kg
Trockenmasse 290.00 kg
Gesamtmasse 305.00 kg
Länge 0.20 m
Durchmesser 2.80 m
Spannweite 9.00 m
Form Box + pan
Hersteller SPXS
Bus-Typ Starlink
Phasenstatus In Orbit
Besitzer/Staat SPXS/US

Große Konstellationen

Loading constellations...